OPS 4682 DEB, 14047

Orbit data source: Space-Track

OPS 4682 DEB, 14047 is space debris in LEO originally from a launch on Sat, 03 Apr 1965 UTC launched from the Air Force Western Test Range (AFWTR). Debris objects in space refer to the collection of defunct objects orbiting the Earth. Examples of debris include non-operational satellites, rocket bodies, and fragments generated from explosions, collisions, or faulty payload assembly.

Loading next visibility...
Identifier
14047, 1965-027J
Orbit
LEO
Country
Flag of USUS
Related business
Manufacturer
Unknown
Mission
Spacecraft
Bus & Motor
Unknown
Mass
Unknown
Launch date (UTC)
1965-04-03 (61 years ago)
Launch vehicle
Unknown
Launch site
Air Force Western Test Range (AFWTR)
Object type
Payload
Rocket body
Debris
Shape & HBR
Unknown shape, 0.1 m
Radar Cross Section
Small (<0.1 m²)

Expand to show TLE details & history
Last TLE update: 23 hours ago

TLE from 23 hours ago
0 OPS 4682 DEB
1 14047U 65027J   25302.14720278  .00000456  00000-0  15629-2 0  9999
2 14047  90.2402 357.9390 0031475 359.8743  58.1382 12.96545804804070
Epoch: 2025-10-29T03:31Z
TLE epoch observation values (Epoch: 2025-10-29T03:31:58.320Z)
Latitude
58.40785°
Longitude
-93.16712°
Altitude
1,272.91 km
Speed
7.231 km/s
True Right ascension
23h 50m 12s
True Declination
58° 15' 52"
Sunlit
Object was in full shadow at epoch
Visualization orbit readout
Latitude
Unknown
Longitude
Unknown
Altitude
Unknown
Speed
Unknown
Apparent Right ascension
Unknown
Apparent Declination
Unknown
Sunlit
N/A
Visualization observer readout
Local Sidereal Time
22:15:23
Azimuth
Unknown
Elevation
Unknown
Doppler factor
Unknown
Orbital elements
Apogee altitude
1,296.864 km
Perigee altitude
1,248.701 km
Semi-major axis
7,650.92 km
Eccentricity
0.00315
Inclination
90.2402°
RAAN
357.939°
Arg. of periapsis
359.8743°
True anomaly
58.44517°
Mean anomaly
58.1382°
Eccentric anomaly
58.29162°
Mean motion
3.24319 °/min
Orbital period
111 mins
BSTAR
0.0015629
Loading maneuver chart data...
Computing Atmospheric mass density...
Loading historical data...
Loading historical data...
Loading historical data...
Loading historical data...
Loading historical data...
Loading historical data...
Loading historical data...

Documentation

Showing up to 5 results
|